Weather History for KM40 - January, 2014

Change the Weather History Date:

Friday, January 17, 2014

  Actual Average (KCBM) Record (KCBM)
Temperature  
Mean Temperature 38 °F -  
Max Temperature 51 °F 51 °F 66 °F (1999)
Min Temperature 24 °F 32 °F 15 °F (1997)
Degree Days  
Heating Degree Days 28    
Moisture  
Dew Point 24 °F    
Average Humidity 58    
Maximum Humidity 65    
Minimum Humidity 54    
Precipitation  
Precipitation 0.00 in - - ()
Sea Level Pressure  
Sea Level Pressure 30.10 in    
Wind  
Wind Speed 4 mph (West)    
Max Wind Speed 17 mph    
Max Gust Speed 24 mph    
Visibility 9 miles    
Events      
Averages and records for this station are not official NWS values.
T = Trace of Precipitation, MM = Missing Value Source: NWS Daily Summary

Daily Weather History Graph

Daily Weather History Graph

Search for Another Location

Airport or City:

Trip Planner

Search our weather history database for the weather conditions in past years. The results will help you decide how hot, cold, wet, or windy it might be!

Date:

Astronomy

Jan. 17, 2014 Rise Set
Actual Time 6:58 AM CST 5:10 PM CST
Civil Twilight 6:31 AM CST 5:37 PM CST
Nautical Twilight 6:00 AM CST 6:07 PM CST
Astronomical Twilight 5:30 AM CST 6:37 PM CST
Moon 6:49 PM CST (1/17) 7:32 AM CST (1/17)
Length of Visible Light 11h 05m
Length of Day
10h 11m
Full, 98% of the Moon is Illuminated
Jan 17
Full
Jan 23
Last Quarter
Jan 30
New
Feb 6
First Quarter
Feb 14
Full

Hourly Weather History & Observations

Time (CST) Temp. Windchill Dew Point Humidity Pressure Visibility Wind Dir Wind Speed Gust Speed Precip Events Conditions
12:15 AM 42.8 °F - 28.4 °F 57% 29.98 in 10.0 mi Calm Calm - N/A   Clear
12:35 AM 37.4 °F - 23.0 °F 56% 29.97 in 9.0 mi Calm Calm - N/A   Clear
12:55 AM 33.8 °F - 21.2 °F 60% 29.98 in 10.0 mi Calm Calm - N/A   Clear
1:15 AM 33.8 °F - 19.4 °F 56% 29.98 in 10.0 mi Calm Calm - N/A   Clear
1:35 AM 32.0 °F - 19.4 °F 60% 29.98 in 10.0 mi Calm Calm - N/A   Clear
1:55 AM 32.0 °F - 19.4 °F 60% 29.98 in 10.0 mi Calm Calm - N/A   Clear
2:15 AM 32.0 °F - 17.6 °F 55% 29.98 in 10.0 mi Calm Calm - N/A   Clear
2:35 AM 32.0 °F - 17.6 °F 55% 29.98 in 10.0 mi Calm Calm - N/A   Clear
2:55 AM 30.2 °F - 17.6 °F 60% 29.97 in 9.0 mi Calm Calm - N/A   Clear
3:15 AM 30.2 °F - 17.6 °F 60% 29.98 in 10.0 mi Calm Calm - N/A   Clear
3:35 AM 30.2 °F - 17.6 °F 60% 29.98 in 10.0 mi Calm Calm - N/A   Clear
3:55 AM 30.2 °F - 17.6 °F 60% 29.99 in 10.0 mi Calm Calm - N/A   Clear
4:15 AM 30.2 °F - 15.8 °F 55% 29.99 in 10.0 mi Calm Calm - N/A   Clear
4:35 AM 30.2 °F 26.7 °F 17.6 °F 60% 30.01 in 10.0 mi SW 3.5 mph - N/A   Clear
4:55 AM 32.0 °F 28.7 °F 19.4 °F 60% 30.00 in 10.0 mi WSW 3.5 mph - N/A   Clear
5:15 AM 33.8 °F - 21.2 °F 60% 30.01 in 10.0 mi Calm Calm - N/A   Clear
5:35 AM 35.6 °F 31.7 °F 21.2 °F 56% 30.02 in 10.0 mi WSW 4.6 mph - N/A   Clear
5:55 AM 35.6 °F 31.7 °F 23.0 °F 60% 30.03 in 10.0 mi West 4.6 mph - N/A   Clear
6:15 AM 37.4 °F 33.8 °F 23.0 °F 56% 30.04 in 10.0 mi West 4.6 mph - N/A   Clear
6:35 AM 37.4 °F 34.9 °F 23.0 °F 56% 30.04 in 9.0 mi West 3.5 mph - N/A   Clear
6:55 AM 35.6 °F 31.7 °F 23.0 °F 60% 30.06 in 10.0 mi WSW 4.6 mph - N/A   Clear
7:15 AM 35.6 °F 32.8 °F 23.0 °F 60% 30.06 in 9.0 mi SW 3.5 mph - N/A   Clear
7:35 AM 35.6 °F 31.7 °F 23.0 °F 60% 30.07 in 8.0 mi WSW 4.6 mph - N/A   Clear
7:55 AM 35.6 °F 29.9 °F 23.0 °F 60% 30.08 in 7.0 mi West 6.9 mph - N/A   Clear
8:15 AM 37.4 °F 31.4 °F 26.6 °F 65% 30.09 in 8.0 mi WNW 8.1 mph - N/A   Clear
8:35 AM 41.0 °F 36.4 °F 28.4 °F 61% 30.10 in 8.0 mi WNW 6.9 mph - N/A   Clear
8:55 AM 42.8 °F 39.3 °F 28.4 °F 57% 30.10 in 7.0 mi WNW 5.8 mph - N/A   Clear
9:15 AM 44.6 °F 39.7 °F 30.2 °F 57% 30.11 in 9.0 mi NW 9.2 mph - N/A   Clear
9:35 AM 44.6 °F 38.4 °F 32.0 °F 61% 30.11 in 7.0 mi WNW 12.7 mph 16.1 mph N/A   Clear
9:55 AM 44.6 °F 40.7 °F 32.0 °F 61% 30.11 in 8.0 mi NW 6.9 mph 19.6 mph N/A   Clear
10:15 AM 46.4 °F 41.5 °F 32.0 °F 57% 30.12 in 9.0 mi WNW 10.4 mph - N/A   Clear
10:35 AM 46.4 °F 40.1 °F 32.0 °F 57% 30.13 in 8.0 mi WNW 15.0 mph 19.6 mph N/A   Clear
10:55 AM 46.4 °F 40.4 °F 32.0 °F 57% 30.12 in 8.0 mi West 13.8 mph 21.9 mph N/A   Clear
11:15 AM 46.4 °F 40.7 °F 32.0 °F 57% 30.12 in 7.0 mi West 12.7 mph 19.6 mph N/A   Scattered Clouds
11:35 AM 46.4 °F 40.7 °F 32.0 °F 57% 30.11 in 8.0 mi West 12.7 mph 16.1 mph N/A   Scattered Clouds
11:55 AM 46.4 °F 40.1 °F 32.0 °F 57% 30.10 in 8.0 mi WNW 15.0 mph 20.7 mph N/A   Scattered Clouds
12:15 PM 50.0 °F - 33.8 °F 54% 30.09 in 8.0 mi WSW 12.7 mph 18.4 mph N/A   Partly Cloudy
12:35 PM 50.0 °F - 35.6 °F 58% 30.07 in 9.0 mi West 13.8 mph 21.9 mph N/A   Partly Cloudy
12:55 PM 51.8 °F - 35.6 °F 54% 30.07 in 8.0 mi West 11.5 mph 19.6 mph N/A   Partly Cloudy
1:15 PM 50.0 °F - 33.8 °F 54% 30.07 in 9.0 mi West 13.8 mph 21.9 mph N/A   Partly Cloudy
1:35 PM 48.2 °F - 33.8 °F 58% 30.07 in 9.0 mi WSW 17.3 mph 24.2 mph N/A   Clear
1:55 PM 48.2 °F - 33.8 °F 58% 30.08 in 9.0 mi West 13.8 mph 23.0 mph N/A   Clear
2:15 PM 48.2 °F - 33.8 °F 58% 30.09 in 9.0 mi West 13.8 mph 24.2 mph N/A   Clear
2:35 PM 48.2 °F - 32.0 °F 54% 30.09 in 8.0 mi West 13.8 mph 24.2 mph N/A   Clear
2:55 PM 48.2 °F - 32.0 °F 54% 30.10 in 9.0 mi West 11.5 mph 20.7 mph N/A   Clear
3:15 PM 46.4 °F 41.5 °F 32.0 °F 57% 30.11 in 8.0 mi WNW 10.4 mph 21.9 mph N/A   Clear
3:35 PM 46.4 °F 41.1 °F 32.0 °F 57% 30.12 in 9.0 mi West 11.5 mph 19.6 mph N/A   Clear
3:55 PM 46.4 °F 41.1 °F 32.0 °F 57% 30.12 in 8.0 mi WNW 11.5 mph 16.1 mph N/A   Clear
4:15 PM 42.8 °F 37.5 °F 28.4 °F 57% 30.13 in 9.0 mi West 9.2 mph - N/A   Partly Cloudy
4:35 PM 44.6 °F 38.4 °F 30.2 °F 57% 30.15 in 9.0 mi WNW 12.7 mph 24.2 mph N/A   Partly Cloudy
4:55 PM 42.8 °F 36.6 °F 28.4 °F 57% 30.16 in 8.0 mi WNW 11.5 mph 19.6 mph N/A   Clear
5:15 PM 41.0 °F 36.4 °F 28.4 °F 61% 30.17 in 8.0 mi West 6.9 mph 16.1 mph N/A   Clear
5:35 PM 39.2 °F 30.8 °F 26.6 °F 61% 30.18 in 9.0 mi WNW 15.0 mph 18.4 mph N/A   Mostly Cloudy
5:55 PM 37.4 °F 30.8 °F 24.8 °F 60% 30.18 in 9.0 mi WNW 9.2 mph - N/A   Partly Cloudy
6:15 PM 37.4 °F - 23.0 °F 56% 30.19 in 10.0 mi Calm Calm - N/A   Clear
6:35 PM 35.6 °F 31.7 °F 23.0 °F 60% 30.19 in 10.0 mi WNW 4.6 mph - N/A   Clear
6:55 PM 33.8 °F 30.8 °F 21.2 °F 60% 30.19 in 10.0 mi NW 3.5 mph - N/A   Clear
7:15 PM 33.8 °F 29.6 °F 21.2 °F 60% 30.19 in 10.0 mi West 4.6 mph - N/A   Clear
7:35 PM 33.8 °F 29.6 °F 21.2 °F 60% 30.19 in 10.0 mi WNW 4.6 mph - N/A   Clear
7:55 PM 33.8 °F 30.8 °F 21.2 °F 60% 30.20 in 10.0 mi West 3.5 mph - N/A   Clear
8:15 PM 32.0 °F - 19.4 °F 60% 30.20 in 10.0 mi Calm Calm - N/A   Clear
8:35 PM 32.0 °F - 19.4 °F 60% 30.20 in 10.0 mi Calm Calm - N/A   Clear
8:55 PM 32.0 °F 28.7 °F 19.4 °F 60% 30.20 in 10.0 mi West 3.5 mph - N/A   Clear
9:15 PM 32.0 °F - 17.6 °F 55% 30.20 in 10.0 mi Calm Calm - N/A   Clear
9:35 PM 30.2 °F - 15.8 °F 55% 30.21 in 10.0 mi Calm Calm - N/A   Clear
9:55 PM 28.4 °F - 14.0 °F 55% 30.21 in 10.0 mi Calm Calm - N/A   Clear
10:15 PM 28.4 °F - 14.0 °F 55% 30.22 in 10.0 mi Calm Calm - N/A   Clear
10:35 PM 26.6 °F - 14.0 °F 59% 30.22 in 10.0 mi Calm Calm - N/A   Clear
10:55 PM 26.6 °F - 12.2 °F 55% 30.22 in 10.0 mi Calm Calm - N/A   Clear
11:15 PM 24.8 °F - 12.2 °F 59% 30.22 in 10.0 mi Calm Calm - N/A   Clear
11:35 PM 26.6 °F - 12.2 °F 55% 30.22 in 10.0 mi Calm Calm - N/A   Clear
11:55 PM 26.6 °F - 12.2 °F 55% 30.22 in 10.0 mi Calm Calm - N/A   Clear